Home   Weather   Dresden   Past weeks

Flag for Germany Past Weather in Dresden, Saxony, Germany — Yesterday and Last 2 Weeks

Now
52 °F

Clear.


Feels Like: 51 °F
Forecast: 42 / 60 °F
Wind: 3 mph from Southwest

Location: Dresden-Klotzsche

Current Time: Apr 24, 2017 at 9:25:19 pm

Latest Report: Apr 24, 2017 at 8:50 pm


Visibility: 10 mi

Pressure: 29.80 "Hg

Humidity: 50%

Dew Point: 34 °F

Location of DresdenLocation

Past Weather in Dresden — Graph

°F

Dresden Temperature Yesterday

Maximum temperature yesterday: 46 °F (at 4:50 pm)
Minimum temperature yesterday: 37 °F (at 3:20 am)
Average temperature yesterday: 41 °F

High & Low Weather Summary for the Past Weeks

 TemperatureHumidityPressure
High70 °F (Apr 10, 1:50 pm)100% (Apr 13, 5:50 am)30.54 "Hg (Apr 13, 5:50 am)
Low28 °F (Apr 19, 5:20 am)35% (Apr 10, 2:20 pm)29.77 "Hg (Apr 13, 12:50 am)
Average44 °F71%30.08 "Hg
* Reported Apr 9 8:50 pm — Apr 24 8:20 pm, Dresden, Weather by CustomWeather, © 2017

Note: Actual official high and low records may vary slightly from our data, if they occured in-between our weather recording intervals... More about our weather records

Advertising

Dresden Weather History for the Previous 24 Hours

Scroll right to see more
 ConditionsComfort  
Time TempWeatherWind HumidityBarometerVisibility
8:20 pm
Mon, Apr 24
54 °FPassing clouds.3 mph47%29.80 "HgN/A
7:50 pm55 °FPassing clouds.5 mph44%29.83 "HgN/A
7:20 pm55 °FPassing clouds.5 mph44%29.83 "HgN/A
6:50 pm57 °FPassing clouds.7 mph39%29.83 "HgN/A
6:20 pm57 °FPassing clouds.9 mph39%29.83 "HgN/A
5:50 pm57 °FPassing clouds.10 mph39%29.83 "HgN/A
5:20 pm57 °FPassing clouds.10 mph39%29.86 "HgN/A
4:50 pm57 °FPassing clouds.9 mph41%29.86 "HgN/A
4:20 pm57 °FPassing clouds.12 mph41%29.89 "HgN/A
3:50 pm55 °FPassing clouds.10 mph41%29.89 "HgN/A
3:20 pm55 °FPassing clouds.10 mph38%29.92 "HgN/A
2:50 pm54 °FPassing clouds.13 mph44%29.92 "HgN/A
2:20 pm54 °FPassing clouds.13 mph41%29.95 "HgN/A
1:50 pm52 °FPassing clouds.12 mph44%29.95 "HgN/A
1:20 pm54 °FPartly sunny.13 mph44%29.98 "HgN/A
12:50 pm52 °FScattered clouds.13 mph44%30.01 "HgN/A
12:20 pm48 °FScattered clouds.12 mph43%30.01 "HgN/A
11:50 am48 °FScattered clouds.12 mph50%30.04 "HgN/A
11:20 am46 °FPassing clouds.8 mph50%30.04 "HgN/A
10:50 am46 °FPassing clouds.9 mph53%30.07 "HgN/A
10:20 am46 °FPassing clouds.10 mph57%30.07 "HgN/A
9:50 am43 °FScattered clouds.10 mph66%30.07 "HgN/A
9:20 am41 °FPassing clouds.10 mph66%30.09 "HgN/A
8:50 am41 °FPassing clouds.9 mph70%30.09 "HgN/A
8:20 am39 °FPassing clouds.7 mph75%30.09 "HgN/A
7:50 am37 °FSunny.7 mph81%30.09 "Hg10 mi
7:20 am36 °FPassing clouds.5 mph81%30.09 "HgN/A
6:50 am36 °FSunny.6 mph81%30.09 "Hg10 mi
6:20 am34 °FSunny.6 mph87%30.09 "Hg10 mi
5:50 am36 °FClear.5 mph81%30.09 "Hg10 mi
4:50 am36 °FPassing clouds.5 mph81%30.12 "HgN/A
4:20 am36 °FPassing clouds.5 mph81%30.12 "HgN/A
3:50 am36 °FPassing clouds.5 mph87%30.12 "HgN/A
3:20 am36 °FChilly.5 mph87%30.12 "HgN/A
2:50 am37 °FClear.6 mph81%30.12 "Hg10 mi
2:20 am37 °FPassing clouds.5 mph81%30.12 "HgN/A
1:50 am39 °FClear.5 mph75%30.12 "Hg10 mi
1:20 am39 °FClear.6 mph75%30.15 "Hg10 mi
12:50 am41 °FClear.6 mph76%30.15 "Hg10 mi
12:20 am39 °FClear.8 mph81%30.15 "Hg10 mi
11:50 pm
Sun, Apr 23
39 °FClear.7 mph75%30.15 "Hg10 mi
11:20 pm41 °FPartly cloudy.10 mph76%30.15 "HgN/A
10:50 pm41 °FClear.9 mph76%30.15 "Hg10 mi
10:20 pm41 °FClear.8 mph76%30.15 "Hg10 mi
9:50 pm41 °FClear.7 mph70%30.12 "Hg10 mi
Weather by CustomWeather, © 2017

See weather overviewHow to use our weather pages